• In Hungary
  • List of Countries
  • For 7 days
  • Water Temperature
  • Satellite Maps
  • Weather Map
  • News
  • Weather Widgets
  • user-avatar
    Login

    Hourly Weather Cobija

    Today, 19 August, Sunday

    Time Temperature Precipitation Wind Pressure Humidity
    00:00 +26°C° 0 mm 1 mps 739 mmHg 71%
    01:00 +23°C° 0 mm 0 mps 739 mmHg 73%
    02:00 +23°C° 0 mm 0 mps 739 mmHg 75%
    03:00 +23°C° 0 mm 0 mps 739 mmHg 76%
    04:00 +22°C° 0 mm 0 mps 739 mmHg 77%
    05:00 +23°C° 0 mm 0 mps 740 mmHg 75%
    06:00 +24°C° 0 mm 0 mps 740 mmHg 74%
    07:00 +27°C° 0 mm 1 mps 741 mmHg 69%
    08:00 +30°C° 0 mm 1 mps 741 mmHg 60%
    09:00 +32°C° 0 mm 1 mps 741 mmHg 51%
    10:00 +35°C° 0 mm 1 mps 741 mmHg 42%
    11:00 +35°C° 0 mm 1 mps 740 mmHg 42%
    12:00 +35°C° 0 mm 1 mps 740 mmHg 42%
    13:00 +33°C° 0 mm 0 mps 739 mmHg 42%
    14:00 +32°C° 0 mm 0 mps 738 mmHg 44%
    15:00 +31°C° 0 mm 0 mps 738 mmHg 46%
    16:00 +31°C° 0 mm 0 mps 738 mmHg 49%
    17:00 +29°C° 0 mm 0 mps 738 mmHg 53%
    18:00 +28°C° 0 mm 0 mps 738 mmHg 57%
    19:00 +26°C° 0 mm 0 mps 739 mmHg 61%
    20:00 +26°C° 0 mm 0 mps 739 mmHg 63%
    21:00 +25°C° 0 mm 0 mps 739 mmHg 65%
    22:00 +25°C° 0 mm 0 mps 740 mmHg 67%
    23:00 +24°C° 0 mm 0 mps 740 mmHg 69%

    Tomorrow, 20 August, Monday

    Time Temperature Precipitation Wind Pressure Humidity
    00:00 +24°C° 0 mm 0 mps 740 mmHg 71%
    01:00 +24°C° 0 mm 0 mps 740 mmHg 73%
    02:00 +23°C° 0.9 mm 0 mps 740 mmHg 79%
    03:00 +22°C° 0.9 mm 0 mps 740 mmHg 86%
    04:00 +21°C° 0.9 mm 0 mps 740 mmHg 92%
    05:00 +22°C° 0.8 mm 0 mps 741 mmHg 93%
    06:00 +24°C° 0.8 mm 1 mps 741 mmHg 94%
    07:00 +24°C° 0.8 mm 1 mps 742 mmHg 94%
    08:00 +25°C° 0.7 mm 1 mps 742 mmHg 90%
    09:00 +27°C° 0.7 mm 2 mps 743 mmHg 85%
    10:00 +28°C° 0.7 mm 2 mps 743 mmHg 81%
    11:00 +27°C° 1.3 mm 2 mps 743 mmHg 82%
    12:00 +27°C° 1.3 mm 2 mps 742 mmHg 83%
    13:00 +26°C° 1.3 mm 2 mps 742 mmHg 84%
    14:00 +26°C° 0.3 mm 2 mps 742 mmHg 81%
    15:00 +26°C° 0.3 mm 2 mps 741 mmHg 79%
    16:00 +26°C° 0.3 mm 2 mps 741 mmHg 76%
    17:00 +25°C° 0 mm 2 mps 742 mmHg 78%
    18:00 +24°C° 0 mm 2 mps 742 mmHg 80%
    19:00 +23°C° 0 mm 2 mps 742 mmHg 82%
    20:00 +21°C° 0 mm 2 mps 743 mmHg 82%
    21:00 +21°C° 0 mm 2 mps 743 mmHg 81%
    22:00 +21°C° 0 mm 2 mps 743 mmHg 80%
    23:00 +20°C° 0 mm 2 mps 743 mmHg 79%

    Day after tomorrow, 21 August, Tuesday

    Time Temperature Precipitation Wind Pressure Humidity
    00:00 +20°C° 0 mm 2 mps 743 mmHg 79%
    01:00 +20°C° 0 mm 2 mps 743 mmHg 78%
    02:00 +20°C° 0 mm 2 mps 743 mmHg 77%
    03:00 +19°C° 0 mm 2 mps 743 mmHg 76%
    04:00 +19°C° 0 mm 2 mps 742 mmHg 75%
    05:00 +19°C° 0 mm 2 mps 743 mmHg 73%
    06:00 +20°C° 0 mm 2 mps 743 mmHg 71%
    07:00 +20°C° 0 mm 2 mps 744 mmHg 69%
    08:00 +23°C° 0 mm 2 mps 744 mmHg 62%
    09:00 +26°C° 0 mm 2 mps 744 mmHg 54%
    10:00 +28°C° 0 mm 2 mps 745 mmHg 47%
    11:00 +30°C° 0 mm 2 mps 744 mmHg 44%
    12:00 +31°C° 0 mm 1 mps 743 mmHg 41%
    13:00 +33°C° 0 mm 1 mps 742 mmHg 37%
    14:00 +33°C° 0 mm 1 mps 741 mmHg 39%
    15:00 +33°C° 0 mm 1 mps 740 mmHg 40%
    16:00 +32°C° 0 mm 1 mps 739 mmHg 41%
    17:00 +30°C° 0 mm 1 mps 739 mmHg 48%
    18:00 +26°C° 0 mm 0 mps 740 mmHg 55%
    19:00 +24°C° 0 mm 0 mps 740 mmHg 62%
    20:00 +23°C° 0 mm 0 mps 741 mmHg 63%
    21:00 +23°C° 0 mm 0 mps 741 mmHg 65%
    22:00 +24°C° 0 mm 1 mps 742 mmHg 66%
    23:00 +24°C° 0 mm 1 mps 742 mmHg 67%

    22 August, Wednesday

    Time Temperature Precipitation Wind Pressure Humidity
    00:00 +23°C° 0 mm 1 mps 741 mmHg 68%
    01:00 +23°C° 0 mm 1 mps 741 mmHg 69%
    02:00 +23°C° 0 mm 1 mps 741 mmHg 70%
    03:00 +22°C° 0 mm 1 mps 741 mmHg 70%
    04:00 +22°C° 0 mm 1 mps 741 mmHg 70%
    05:00 +23°C° 0 mm 1 mps 741 mmHg 68%
    06:00 +23°C° 0 mm 1 mps 742 mmHg 67%
    07:00 +24°C° 0 mm 1 mps 742 mmHg 65%
    08:00 +27°C° 0 mm 1 mps 743 mmHg 56%
    09:00 +30°C° 0 mm 1 mps 743 mmHg 48%
    10:00 +32°C° 0 mm 1 mps 743 mmHg 40%
    11:00 +34°C° 0 mm 1 mps 742 mmHg 37%
    12:00 +36°C° 0 mm 1 mps 741 mmHg 34%
    13:00 +36°C° 0 mm 0 mps 740 mmHg 31%
    14:00 +34°C° 0 mm 0 mps 739 mmHg 34%
    15:00 +33°C° 0 mm 0 mps 738 mmHg 36%
    16:00 +32°C° 0 mm 0 mps 737 mmHg 39%
    17:00 +30°C° 0 mm 0 mps 738 mmHg 44%
    18:00 +28°C° 0 mm 0 mps 738 mmHg 49%
    19:00 +26°C° 0 mm 0 mps 738 mmHg 54%
    20:00 +26°C° 0 mm 0 mps 739 mmHg 56%
    21:00 +25°C° 0 mm 0 mps 739 mmHg 58%
    22:00 +25°C° 0 mm 0 mps 739 mmHg 59%
    23:00 +24°C° 0 mm 0 mps 739 mmHg 61%

    23 August, Thursday

    Time Temperature Precipitation Wind Pressure Humidity
    00:00 +24°C° 0 mm 0 mps 739 mmHg 62%
    01:00 +23°C° 0 mm 0 mps 739 mmHg 64%
    02:00 +23°C° 0 mm 0 mps 738 mmHg 65%
    03:00 +23°C° 0 mm 0 mps 738 mmHg 67%
    04:00 +22°C° 0 mm 0 mps 738 mmHg 68%
    05:00 +23°C° 0 mm 0 mps 739 mmHg 68%
    06:00 +23°C° 0 mm 0 mps 739 mmHg 67%
    07:00 +24°C° 0 mm 0 mps 740 mmHg 67%
    08:00 +27°C° 0 mm 0 mps 740 mmHg 57%
    09:00 +30°C° 0 mm 0 mps 741 mmHg 48%
    10:00 +34°C° 0 mm 0 mps 741 mmHg 38%
    11:00 +36°C° 0 mm 1 mps 740 mmHg 36%
    12:00 +37°C° 0 mm 1 mps 739 mmHg 34%
    13:00 +37°C° 0 mm 1 mps 738 mmHg 32%
    14:00 +37°C° 0 mm 1 mps 737 mmHg 33%
    15:00 +36°C° 0 mm 1 mps 736 mmHg 35%
    16:00 +36°C° 0 mm 1 mps 735 mmHg 36%
    17:00 +33°C° 0 mm 1 mps 736 mmHg 42%
    18:00 +31°C° 0 mm 1 mps 736 mmHg 48%
    19:00 +27°C° 0 mm 0 mps 736 mmHg 55%
    20:00 +26°C° 0 mm 0 mps 737 mmHg 57%
    21:00 +26°C° 0 mm 0 mps 737 mmHg 59%
    22:00 +27°C° 0 mm 1 mps 737 mmHg 61%
    23:00 +27°C° 0 mm 1 mps 737 mmHg 63%

    24 August, Friday

    Time Temperature Precipitation Wind Pressure Humidity
    00:00 +26°C° 0 mm 1 mps 737 mmHg 64%
    01:00 +26°C° 0 mm 1 mps 737 mmHg 66%
    02:00 +26°C° 0 mm 1 mps 737 mmHg 66%
    03:00 +25°C° 0 mm 1 mps 737 mmHg 67%
    04:00 +25°C° 0 mm 1 mps 737 mmHg 68%
    05:00 +26°C° 0 mm 1 mps 737 mmHg 67%
    06:00 +26°C° 0 mm 1 mps 738 mmHg 66%
    07:00 +27°C° 0 mm 1 mps 739 mmHg 65%
    08:00 +30°C° 0 mm 1 mps 739 mmHg 56%
    09:00 +34°C° 0 mm 2 mps 739 mmHg 47%
    10:00 +36°C° 0 mm 2 mps 740 mmHg 38%
    11:00 +37°C° 0 mm 2 mps 739 mmHg 35%
    12:00 +38°C° 0 mm 2 mps 738 mmHg 33%
    13:00 +39°C° 0 mm 2 mps 737 mmHg 30%
    14:00 +39°C° 0 mm 2 mps 737 mmHg 31%
    15:00 +37°C° 0 mm 1 mps 736 mmHg 31%
    16:00 +37°C° 0 mm 1 mps 735 mmHg 32%
    17:00 +35°C° 0 mm 1 mps 736 mmHg 39%
    18:00 +32°C° 0 mm 1 mps 737 mmHg 45%
    19:00 +28°C° 0 mm 0 mps 737 mmHg 52%
    20:00 +27°C° 0 mm 0 mps 738 mmHg 53%
    21:00 +27°C° 0 mm 0 mps 738 mmHg 55%
    22:00 +26°C° 0 mm 0 mps 739 mmHg 57%
    23:00 +26°C° 0 mm 0 mps 739 mmHg 58%
    Show more